GFSNGP_925_temp_084.txt.gz
Temp
18 16 15 17 16 16 20 19 18 20 20 20 21 24 26 26 26 26 26 27 27 27 26 27 26 25 24 23 21 19 19 20 19 18 17 17 17 16 16 16 15 15 15 15
16 19 19 19 18 19 17 18 21 21 22 22 23 26 26 25 25 25 25 24 24 24 24 25 25 25 25 24 23 20 19 19 19 19 18 17 17 17 16 16 16 16 15 15
15 18 18 17 19 21 21 22 22 21 22 24 24 24 24 23 22 22 22 22 23 23 23 23 23 23 25 25 24 22 20 20 20 19 19 18 17 17 17 16 16 16 15 15
15 16 14 19 21 22 21 22 23 23 20 22 23 24 23 22 21 21 21 22 22 21 21 22 22 22 22 24 24 23 22 21 20 20 19 19 18 17 17 16 16 16 16 16
14 15 17 19 21 21 21 21 22 20 19 20 22 22 19 20 20 21 21 21 21 21 21 19 18 18 19 20 22 24 23 22 21 20 19 19 18 17 17 17 16 16 16 16
14 14 14 18 21 22 22 19 19 20 18 20 20 18 18 20 21 21 22 22 22 20 18 15 14 14 16 19 20 20 21 22 22 21 20 20 19 18 17 17 17 16 16 16
13 13 16 20 20 20 18 16 18 18 18 18 17 18 19 20 21 22 22 21 20 19 14 11 10 10 14 13 12 13 15 14 18 21 21 20 20 19 18 17 17 16 14 12
13 13 13 19 19 17 16 17 17 17 17 16 17 17 18 18 19 18 19 18 16 15 11 8 6 6 7 7 7 8 10 9 9 11 15 19 19 16 15 13 9 6 6 5
15 15 18 17 16 17 17 17 16 16 16 15 15 15 15 16 16 16 15 14 12 11 9 6 4 3 3 4 5 6 5 4 4 5 6 7 8 8 10 10 8 3 2 -0
14 13 13 12 14 15 16 15 15 15 14 14 13 13 13 14 12 12 12 9 8 6 4 3 2 1 1 1 3 3 3 1 0 -0 -0 1 2 3 3 3 2 0 -1 -2
15 13 11 10 11 12 14 13 12 13 12 12 11 11 11 11 9 8 7 5 4 2 1 0 -0 -1 -1 1 1 1 1 1 -1 -2 -2 -3 -4 -3 -2 -1 0 -1 -2 -3
11 10 10 9 10 11 11 11 11 11 10 10 9 9 9 8 5 4 3 1 0 -1 -1 -2 -2 -3 -2 -1 -0 -0 -1 -1 -2 -2 -3 -3 -4 -4 -4 -4 -3 -3 -3 -3
9 10 11 10 8 8 8 8 8 7 6 5 4 5 5 4 1 1 -0 -2 -2 -3 -3 -4 -4 -4 -4 -2 -2 -2 -2 -2 -3 -3 -3 -3 -4 -4 -4 -5 -5 -5 -5 -5
8 9 10 8 6 7 7 7 7 5 4 2 2 1 0 -1 -2 -3 -4 -4 -4 -5 -5 -5 -5 -5 -5 -4 -3 -3 -4 -4 -4 -4 -4 -5 -5 -5 -5 -5 -5 -5 -6 -6
7 8 7 7 7 7 7 6 6 4 2 1 -0 -2 -2 -3 -5 -6 -6 -6 -6 -6 -6 -6 -5 -5 -5 -5 -4 -4 -4 -4 -4 -5 -5 -5 -5 -5 -5 -6 -6 -6 -6 -6
6 7 6 5 5 5 4 2 2 1 0 -0 -2 -3 -4 -5 -6 -6 -7 -7 -7 -7 -7 -7 -6 -6 -5 -5 -5 -5 -5 -5 -4 -4 -4 -5 -5 -6 -6 -6 -6 -6 -6 -7
3 3 2 2 2 2 0 -0 -1 -2 -2 -3 -4 -4 -5 -5 -5 -6 -7 -8 -8 -8 -8 -8 -7 -7 -6 -6 -6 -6 -6 -6 -6 -6 -6 -7 -7 -8 -8 -8 -8 -8 -9 -9
2 1 -0 -0 -0 -1 -1 -2 -3 -4 -5 -6 -6 -7 -8 -7 -7 -8 -9 -9 -9 -10 -9 -9 -9 -8 -7 -7 -7 -7 -8 -8 -8 -8 -8 -8 -8 -8 -8 -9 -9 -9 -10 -10
-1 -2 -2 -3 -3 -3 -4 -4 -5 -6 -7 -8 -8 -8 -9 -10 -10 -11 -11 -11 -11 -11 -11 -10 -10 -9 -9 -8 -8 -8 -9 -9 -9 -9 -9 -9 -9 -9 -10 -10 -10 -11 -11 -12
-3 -4 -5 -5 -6 -5 -6 -7 -7 -8 -8 -9 -10 -10 -11 -10 -10 -11 -12 -12 -12 -12 -12 -11 -11 -11 -10 -10 -10 -9 -9 -9 -10 -10 -10 -10 -10 -10 -10 -11 -11 -11 -12 -12
-5 -6 -7 -7 -7 -8 -8 -8 -9 -9 -10 -10 -10 -11 -11 -12 -12 -11 -11 -12 -13 -13 -13 -13 -12 -11 -11 -11 -11 -11 -10 -11 -11 -11 -11 -11 -11 -12 -12 -12 -12 -13 -13 -13
-6 -7 -8 -8 -8 -9 -9 -10 -10 -10 -10 -11 -11 -10 -10 -11 -12 -13 -14 -13 -13 -14 -14 -14 -13 -13 -12 -12 -12 -12 -12 -12 -12 -12 -13 -13 -13 -13 -13 -14 -14 -14 -14 -15
-7 -7 -8 -8 -9 -10 -10 -11 -11 -11 -11 -11 -11 -11 -12 -12 -12 -13 -14 -15 -15 -15 -15 -15 -14 -14 -13 -13 -13 -13 -13 -14 -14 -14 -14 -14 -14 -15 -15 -15 -15 -16 -16 -16
-7 -7 -8 -8 -9 -9 -9 -10 -10 -11 -12 -12 -12 -12 -11 -12 -13 -13 -14 -14 -15 -16 -16 -16 -15 -15 -14 -14 -15 -15 -15 -15 -15 -15 -15 -15 -15 -16 -16 -17 -17 -17 -17 -17
-7 -7 -7 -8 -7 -8 -9 -10 -10 -10 -10 -11 -12 -12 -13 -14 -14 -14 -14 -15 -15 -15 -16 -16 -15 -15 -15 -15 -15 -15 -16 -16 -16 -16 -16 -16 -17 -17 -18 -18 -18 -18 -18 -18
-7 -7 -8 -8 -8 -7 -8 -8 -8 -9 -10 -11 -12 -13 -14 -14 -14 -14 -15 -15 -15 -15 -15 -16 -16 -16 -16 -16 -16 -16 -16 -17 -17 -17 -17 -17 -17 -18 -19 -19 -19 -19 -19 -20
-7 -8 -8 -8 -8 -9 -9 -9 -9 -10 -11 -11 -12 -12 -13 -14 -14 -14 -14 -14 -15 -15 -15 -15 -16 -17 -17 -16 -16 -16 -17 -17 -18 -18 -18 -18 -18 -19 -20 -20 -20 -20 -20 -21

GFSNGP_925_temp_087.txt.gz
Temp
15 16 13 12 12 14 14 15 14 17 16 17 17 18 20 22 22 21 21 21 21 21 19 19 18 20 19 18 17 18 18 15 14 14 14 14 14 14 14 14 13 13 12 13
14 16 18 15 16 15 14 14 15 16 16 17 19 20 21 20 20 20 20 20 20 20 20 19 19 19 18 19 18 17 18 18 16 14 14 14 14 14 14 14 13 13 13 13
13 15 15 15 17 16 16 16 17 15 16 21 20 18 18 17 19 19 19 19 19 18 17 16 15 16 16 18 19 18 17 18 18 17 16 15 15 14 14 14 14 14 13 14
11 13 13 17 19 20 20 19 19 17 17 18 18 18 18 17 18 18 19 19 18 16 15 13 12 12 14 16 18 15 18 17 18 18 17 16 16 16 15 14 14 14 14 14
11 12 15 17 19 19 19 17 17 16 16 17 18 17 16 17 18 18 18 18 14 13 11 10 9 9 12 10 11 11 13 12 13 17 17 17 16 16 16 15 15 14 14 14
10 12 11 16 19 20 20 15 17 16 15 16 16 13 14 16 16 16 13 12 11 9 8 7 7 8 9 8 8 9 10 9 9 9 14 17 17 17 16 15 15 15 15 14
10 10 12 17 18 19 16 13 15 15 15 15 14 13 14 15 15 13 12 10 10 8 6 5 4 5 6 6 5 6 7 6 6 5 7 8 13 17 16 15 15 15 14 12
10 10 11 16 17 15 13 14 14 13 13 13 13 13 13 12 12 10 9 7 6 5 4 3 2 2 3 3 3 4 4 3 3 5 3 5 5 7 10 14 14 12 9 6
11 11 11 12 13 12 14 13 13 12 12 12 11 11 11 9 9 8 6 5 4 4 3 1 0 0 1 1 2 2 2 1 0 3 4 2 2 1 2 4 4 3 2 0
12 11 10 9 10 12 11 11 12 11 10 10 10 9 9 7 6 5 3 2 2 2 1 -0 -1 -1 -1 -0 1 2 0 -1 -1 -2 -1 2 0 -1 -2 -1 0 -1 -2 -3
10 9 9 8 8 10 11 11 10 10 8 7 8 8 6 5 4 3 1 1 -0 -1 -1 -2 -3 -3 -2 -1 -0 0 -1 -1 -2 -3 -3 -4 -4 -4 -3 -2 -1 -3 -3 -3
8 6 8 6 7 9 8 8 7 6 5 4 4 4 5 3 2 0 -1 -2 -2 -3 -3 -4 -4 -4 -3 -3 -1 -1 -2 -2 -3 -3 -4 -4 -4 -4 -4 -4 -4 -4 -4 -4
5 6 8 7 7 7 7 7 5 4 3 2 1 1 0 -1 -2 -2 -3 -4 -4 -4 -5 -4 -5 -4 -4 -3 -3 -3 -3 -4 -4 -4 -4 -4 -4 -5 -5 -5 -5 -4 -4 -4
7 7 7 7 6 6 5 6 4 3 1 -0 -1 -2 -3 -4 -5 -5 -5 -5 -6 -6 -6 -5 -5 -5 -5 -4 -4 -4 -5 -5 -5 -5 -5 -5 -5 -5 -5 -5 -5 -6 -5 -5
5 5 4 4 4 4 2 2 2 1 -0 -2 -3 -4 -5 -5 -6 -6 -7 -6 -7 -7 -7 -6 -6 -6 -5 -5 -5 -4 -4 -5 -5 -5 -5 -6 -6 -6 -6 -6 -6 -7 -8 -8
4 3 2 2 2 1 1 -0 -1 -2 -2 -3 -4 -5 -6 -7 -7 -8 -8 -8 -8 -8 -8 -8 -7 -7 -6 -6 -6 -6 -6 -6 -6 -7 -7 -7 -7 -8 -8 -8 -8 -8 -9 -9
-0 -1 -0 -0 -0 -2 -2 -3 -3 -4 -4 -5 -6 -6 -6 -7 -8 -9 -10 -10 -10 -10 -9 -9 -8 -8 -7 -7 -7 -8 -8 -7 -7 -7 -8 -8 -8 -9 -9 -9 -9 -10 -10 -11
-1 -2 -3 -2 -3 -3 -4 -5 -6 -6 -7 -8 -9 -10 -10 -10 -10 -11 -11 -11 -11 -11 -11 -10 -9 -9 -8 -8 -8 -8 -9 -9 -9 -9 -9 -9 -10 -10 -10 -11 -11 -11 -12 -12
-4 -4 -5 -5 -5 -5 -6 -6 -7 -8 -8 -9 -10 -10 -11 -11 -12 -12 -12 -12 -12 -12 -12 -11 -10 -10 -9 -9 -9 -9 -10 -10 -10 -10 -10 -10 -10 -11 -11 -11 -12 -12 -13 -13
-6 -6 -6 -7 -7 -7 -8 -9 -9 -10 -10 -10 -11 -11 -12 -11 -12 -13 -13 -13 -13 -13 -12 -12 -11 -11 -11 -11 -10 -11 -11 -11 -11 -11 -12 -12 -12 -12 -12 -13 -13 -13 -14 -14
-8 -8 -9 -9 -10 -10 -10 -10 -10 -10 -10 -11 -12 -12 -13 -13 -13 -13 -13 -14 -14 -14 -13 -13 -12 -12 -12 -12 -12 -12 -12 -12 -13 -13 -13 -13 -13 -14 -14 -14 -14 -14 -15 -15
-8 -9 -10 -10 -10 -11 -11 -10 -11 -11 -11 -11 -11 -12 -12 -13 -14 -15 -15 -15 -15 -14 -14 -14 -13 -13 -13 -13 -13 -13 -13 -14 -14 -14 -14 -14 -14 -15 -15 -15 -15 -16 -16 -16
-8 -9 -9 -10 -11 -11 -11 -11 -11 -12 -12 -12 -12 -13 -13 -13 -14 -14 -15 -15 -15 -15 -15 -14 -14 -14 -14 -14 -14 -14 -14 -15 -15 -15 -15 -15 -15 -16 -16 -17 -16 -17 -17 -17
-8 -8 -9 -10 -10 -10 -11 -11 -12 -12 -12 -13 -13 -13 -13 -14 -14 -14 -15 -15 -15 -15 -15 -15 -15 -15 -15 -15 -15 -15 -15 -16 -16 -16 -16 -16 -17 -17 -17 -17 -18 -18 -18 -18
-7 -8 -8 -9 -9 -10 -10 -11 -11 -11 -12 -12 -13 -13 -14 -14 -14 -14 -15 -15 -15 -15 -15 -15 -16 -16 -16 -16 -16 -16 -16 -17 -17 -17 -17 -17 -18 -18 -18 -19 -19 -19 -19 -19
-8 -8 -8 -8 -8 -8 -9 -9 -10 -11 -12 -13 -13 -13 -14 -14 -14 -14 -15 -15 -15 -15 -16 -16 -16 -16 -16 -16 -17 -17 -17 -17 -17 -18 -18 -18 -19 -19 -19 -19 -20 -20 -20 -20
-8 -8 -9 -9 -10 -10 -10 -11 -11 -12 -12 -12 -13 -14 -14 -14 -14 -14 -15 -15 -15 -15 -15 -16 -16 -16 -17 -17 -17 -17 -18 -18 -18 -19 -19 -19 -19 -20 -20 -20 -21 -21 -21 -21

GFSNGP_925_temp_093.txt.gz
Temp
12 13 13 13 13 14 13 12 13 14 15 15 15 14 13 13 14 15 16 15 15 14 13 13 13 13 14 14 14 13 13 12 12 12 12 12 12 12 13 12 11 11 11 11
11 13 13 12 14 14 14 14 13 13 13 16 15 14 13 13 13 14 14 13 12 11 11 10 11 10 10 10 11 13 13 12 12 12 12 12 12 12 12 12 12 12 11 11
11 12 12 12 14 14 15 14 14 13 15 16 15 14 13 13 12 12 11 10 10 9 8 8 8 8 8 8 9 11 13 13 12 13 13 13 13 12 12 12 11 11 11 11
9 11 10 14 15 14 15 13 13 14 14 13 13 12 11 11 11 9 9 8 7 7 6 5 6 8 7 7 8 8 7 8 7 9 10 11 12 12 12 12 12 12 12 11
8 10 11 13 15 14 13 14 14 14 13 13 11 11 9 8 8 7 7 6 6 5 4 4 5 6 6 6 6 6 5 5 5 5 6 7 8 10 12 12 12 12 12 12
7 9 8 13 14 14 14 12 14 13 13 13 14 11 9 7 6 5 5 5 4 3 2 2 2 4 5 4 4 4 3 3 2 2 3 3 4 5 7 10 11 12 12 12
8 9 9 13 11 13 13 12 12 12 11 11 10 9 7 7 5 4 4 3 3 2 1 0 0 2 2 2 3 2 2 1 0 0 1 1 2 2 3 5 7 9 7 5
8 9 8 10 11 12 11 10 10 10 10 8 8 7 6 5 4 3 2 2 2 2 0 -1 -1 -0 0 0 1 1 -0 -1 -2 -2 -2 -1 0 2 2 1 2 2 2 0
8 9 9 9 8 8 8 7 7 8 8 8 7 5 4 3 2 1 1 1 1 0 -0 -2 -2 -2 -1 -1 0 -0 -1 -2 -3 -3 -3 -3 -3 -2 -2 -1 -1 -1 -1 -2
9 9 8 8 7 7 6 5 4 4 5 6 5 4 3 2 1 -0 -0 -1 -1 -1 -2 -2 -3 -3 -3 -2 -1 -1 -2 -3 -3 -4 -4 -4 -3 -4 -4 -3 -3 -3 -3 -4
7 7 7 6 6 5 3 4 3 2 1 2 2 1 0 -1 -1 -2 -3 -2 -3 -3 -3 -3 -4 -4 -3 -3 -2 -2 -3 -3 -4 -4 -4 -4 -5 -4 -4 -4 -4 -4 -5 -5
6 4 5 4 4 4 3 1 2 2 0 -1 -1 -1 -2 -3 -3 -4 -4 -4 -4 -4 -4 -4 -5 -5 -4 -4 -3 -3 -4 -4 -4 -5 -5 -5 -5 -6 -6 -5 -4 -4 -4 -4
4 3 2 2 2 2 2 1 1 -0 -1 -2 -3 -4 -4 -4 -5 -5 -5 -6 -6 -6 -6 -5 -6 -6 -5 -5 -4 -5 -5 -5 -5 -5 -5 -5 -6 -7 -7 -8 -8 -7 -6 -6
1 2 2 1 1 2 2 1 -1 -2 -3 -4 -4 -5 -5 -5 -6 -6 -7 -7 -8 -8 -8 -8 -8 -7 -6 -6 -5 -5 -6 -6 -6 -6 -6 -7 -7 -8 -9 -9 -10 -10 -9 -8
-0 1 1 1 0 -1 -1 -1 -1 -2 -3 -5 -5 -6 -6 -7 -8 -9 -9 -9 -9 -9 -9 -9 -9 -8 -7 -7 -6 -7 -7 -7 -7 -8 -8 -8 -9 -9 -10 -10 -11 -11 -10 -9
-0 -1 -0 -1 -2 -3 -3 -3 -3 -4 -4 -5 -6 -7 -8 -9 -10 -10 -11 -11 -11 -11 -11 -10 -10 -9 -8 -7 -7 -8 -8 -8 -8 -8 -9 -9 -9 -10 -11 -11 -12 -12 -12 -12
-1 -2 -2 -2 -3 -4 -4 -5 -5 -6 -6 -7 -7 -8 -9 -10 -10 -11 -12 -12 -12 -12 -11 -11 -10 -9 -9 -8 -8 -9 -9 -9 -9 -9 -10 -10 -11 -11 -11 -12 -13 -14 -14 -14
-4 -4 -4 -4 -4 -5 -5 -6 -7 -8 -9 -10 -11 -11 -12 -13 -13 -13 -13 -12 -11 -11 -12 -11 -11 -10 -10 -9 -9 -9 -9 -10 -10 -10 -11 -11 -11 -12 -12 -13 -13 -14 -14 -14
-6 -5 -6 -6 -6 -6 -7 -9 -10 -10 -11 -12 -12 -13 -13 -13 -13 -13 -13 -13 -13 -14 -13 -12 -11 -11 -10 -11 -10 -10 -10 -11 -11 -12 -12 -12 -12 -13 -13 -14 -14 -15 -15 -15
-7 -7 -8 -8 -8 -8 -9 -10 -11 -12 -12 -12 -12 -13 -13 -14 -14 -14 -14 -15 -14 -14 -13 -12 -12 -12 -12 -11 -11 -11 -11 -12 -12 -13 -13 -13 -13 -14 -14 -14 -15 -15 -16 -16
-11 -11 -11 -12 -12 -12 -12 -11 -11 -12 -13 -12 -13 -14 -14 -14 -14 -14 -14 -15 -15 -14 -13 -13 -13 -13 -13 -12 -12 -12 -12 -13 -13 -13 -14 -14 -14 -15 -15 -15 -15 -16 -17 -17
-12 -12 -12 -12 -12 -12 -12 -11 -12 -12 -12 -13 -13 -14 -14 -15 -15 -15 -15 -15 -15 -14 -14 -14 -14 -14 -13 -13 -13 -13 -14 -14 -14 -14 -15 -15 -15 -15 -16 -16 -16 -17 -17 -17
-11 -11 -11 -11 -12 -12 -12 -12 -12 -12 -13 -13 -13 -13 -14 -14 -15 -15 -16 -15 -15 -15 -15 -15 -15 -14 -14 -14 -14 -15 -15 -15 -15 -16 -16 -16 -16 -16 -17 -17 -17 -18 -18 -18
-11 -11 -11 -11 -12 -12 -13 -13 -12 -13 -13 -13 -13 -14 -14 -14 -15 -15 -15 -15 -15 -15 -16 -16 -15 -16 -16 -16 -16 -16 -16 -16 -17 -17 -17 -17 -18 -18 -18 -18 -18 -19 -19 -19
-10 -10 -11 -11 -11 -12 -12 -12 -12 -13 -13 -14 -14 -14 -14 -14 -15 -15 -15 -15 -16 -16 -16 -16 -16 -16 -16 -17 -17 -17 -17 -17 -18 -18 -18 -18 -19 -19 -19 -19 -19 -20 -20 -20
-9 -10 -10 -10 -10 -10 -11 -11 -11 -13 -13 -14 -14 -14 -14 -15 -15 -15 -15 -15 -16 -16 -16 -17 -17 -17 -17 -17 -17 -18 -18 -18 -18 -19 -19 -19 -19 -20 -20 -20 -20 -21 -21 -21
-9 -10 -10 -10 -11 -10 -11 -11 -12 -13 -13 -14 -14 -14 -15 -15 -15 -15 -15 -16 -16 -16 -17 -17 -17 -17 -17 -18 -18 -18 -18 -19 -19 -19 -19 -20 -20 -20 -20 -21 -21 -21 -21 -21

GFSNGP_925_temp_099.txt.gz
Temp
12 13 12 13 13 13 13 13 12 15 15 16 15 15 15 14 13 10 9 8 8 7 8 8 8 9 9 11 12 12 12 12 12 12 12 12 11 11 11 11 10 11 11 11
12 13 13 12 13 13 13 13 13 14 14 16 16 15 13 13 11 10 8 7 7 6 6 7 7 7 7 7 10 12 12 12 12 12 12 12 12 11 10 11 10 10 10 10
11 11 12 12 12 13 14 14 14 14 15 16 14 10 10 9 9 8 7 6 5 5 5 5 5 6 5 5 5 6 6 6 8 10 10 11 11 11 11 11 11 10 10 10
11 11 10 13 13 13 13 14 14 14 14 11 9 7 6 6 6 6 5 4 3 3 3 3 4 5 4 3 3 3 3 3 4 5 6 7 8 8 9 10 11 11 11 11
10 10 12 13 12 11 12 13 12 12 12 10 9 8 4 3 2 3 3 2 1 1 1 2 3 3 4 3 2 1 1 1 1 2 2 3 3 4 6 7 8 7 7 9
9 10 9 11 11 11 11 12 10 10 11 10 11 9 5 2 1 1 2 2 1 0 0 0 1 2 3 2 1 0 0 -0 -0 0 0 1 1 2 2 3 2 2 2 2
9 10 11 9 10 11 12 10 8 8 8 8 7 4 2 1 0 -0 0 1 1 0 -1 -1 -1 1 1 1 0 -0 -1 -1 -1 -1 -1 -1 -0 -0 1 0 -0 -1 -1 -2
9 9 9 8 10 10 8 6 6 5 4 4 3 2 1 0 -0 -1 -1 0 0 -0 -1 -2 -2 -1 -1 -0 -1 -1 -2 -2 -2 -2 -2 -2 -2 -1 -1 -1 -2 -2 -3 -3
9 8 7 6 6 5 5 4 3 4 3 3 1 1 -0 -1 -1 -1 -1 -1 -1 -1 -2 -2 -3 -3 -2 -2 -1 -2 -2 -3 -3 -4 -3 -3 -3 -3 -3 -3 -3 -3 -3 -3
7 5 4 5 3 3 2 1 0 1 1 1 1 -0 -1 -2 -2 -2 -3 -3 -3 -3 -3 -3 -4 -4 -4 -3 -2 -2 -3 -3 -4 -4 -4 -4 -4 -4 -4 -4 -3 -3 -3 -4
6 4 4 3 2 2 1 1 -0 -1 -2 -1 -1 -2 -2 -3 -3 -4 -4 -4 -4 -4 -4 -5 -5 -5 -5 -4 -3 -3 -3 -3 -4 -4 -5 -6 -6 -5 -5 -5 -5 -4 -5 -5
4 2 3 2 1 0 -0 -1 -2 -1 -2 -3 -2 -2 -3 -4 -5 -5 -5 -5 -5 -5 -6 -6 -6 -6 -6 -6 -4 -3 -3 -4 -4 -4 -5 -5 -6 -7 -7 -6 -6 -6 -6 -6
2 2 1 -0 -0 -1 -1 -2 -2 -3 -3 -3 -4 -4 -5 -5 -6 -6 -6 -7 -7 -7 -7 -7 -7 -7 -7 -7 -6 -6 -5 -5 -5 -5 -6 -6 -7 -7 -8 -9 -9 -8 -8 -7
-0 1 1 -1 -2 -1 -1 -2 -3 -4 -5 -5 -5 -6 -6 -7 -7 -8 -8 -8 -8 -8 -8 -8 -8 -9 -9 -8 -7 -7 -7 -7 -7 -8 -8 -8 -8 -9 -9 -9 -9 -10 -10 -9
-1 -1 -2 -3 -2 -3 -3 -2 -2 -3 -5 -6 -7 -7 -7 -8 -9 -9 -10 -9 -9 -9 -10 -10 -10 -10 -9 -9 -8 -8 -8 -8 -8 -9 -9 -9 -9 -10 -10 -10 -10 -11 -10 -11
-1 -1 -2 -2 -3 -4 -4 -4 -4 -5 -5 -6 -7 -8 -9 -9 -10 -11 -11 -11 -11 -11 -11 -12 -11 -11 -10 -9 -9 -9 -9 -9 -9 -9 -9 -10 -10 -10 -11 -11 -12 -12 -13 -13
-0 -2 -2 -3 -4 -5 -5 -6 -6 -7 -8 -8 -9 -9 -9 -10 -11 -11 -12 -12 -13 -13 -13 -12 -12 -11 -10 -9 -9 -10 -10 -10 -10 -10 -10 -11 -11 -11 -12 -12 -13 -14 -15 -15
-4 -4 -4 -4 -5 -6 -7 -8 -8 -9 -10 -11 -12 -13 -13 -13 -13 -14 -14 -13 -13 -13 -13 -13 -12 -11 -10 -10 -10 -11 -11 -11 -11 -11 -11 -12 -12 -13 -13 -13 -14 -14 -15 -15
-5 -5 -6 -6 -7 -8 -9 -10 -11 -11 -12 -13 -13 -15 -14 -14 -15 -14 -14 -14 -14 -13 -14 -13 -13 -12 -11 -12 -11 -11 -11 -12 -12 -12 -13 -13 -13 -14 -14 -15 -15 -16 -16 -16
-7 -8 -8 -9 -9 -9 -10 -11 -12 -13 -13 -13 -14 -14 -15 -15 -14 -14 -14 -15 -16 -15 -14 -13 -13 -13 -12 -12 -11 -12 -13 -13 -13 -14 -14 -14 -14 -15 -16 -16 -16 -17 -17 -18
-10 -11 -11 -12 -13 -13 -12 -12 -13 -14 -14 -14 -14 -15 -15 -15 -14 -14 -14 -14 -16 -15 -14 -14 -14 -14 -14 -13 -13 -13 -14 -14 -15 -15 -15 -15 -16 -16 -16 -17 -17 -18 -18 -18
-12 -13 -13 -12 -13 -13 -13 -12 -13 -13 -13 -14 -14 -14 -15 -15 -15 -15 -16 -15 -15 -15 -15 -16 -15 -15 -14 -14 -14 -15 -15 -15 -16 -16 -16 -16 -16 -17 -17 -18 -18 -19 -19 -19
-12 -12 -12 -12 -12 -13 -12 -12 -12 -12 -13 -13 -14 -14 -15 -15 -15 -14 -14 -16 -16 -16 -16 -16 -16 -16 -15 -15 -15 -15 -16 -16 -16 -16 -17 -17 -17 -18 -18 -19 -19 -19 -19 -20
-12 -12 -12 -12 -12 -13 -12 -13 -13 -13 -13 -14 -14 -14 -15 -15 -15 -16 -16 -16 -16 -16 -16 -16 -16 -17 -16 -17 -17 -17 -17 -17 -17 -18 -18 -18 -18 -18 -18 -19 -19 -19 -20 -20
-11 -12 -12 -12 -12 -12 -12 -13 -13 -13 -14 -14 -14 -15 -15 -15 -15 -16 -16 -16 -16 -16 -17 -17 -17 -17 -17 -18 -18 -18 -18 -18 -19 -19 -19 -19 -19 -19 -19 -20 -20 -20 -20 -20
-11 -11 -11 -11 -11 -11 -11 -12 -12 -12 -13 -14 -15 -15 -15 -15 -15 -16 -16 -16 -16 -17 -17 -17 -17 -18 -18 -18 -18 -18 -19 -19 -19 -19 -19 -20 -20 -20 -20 -20 -20 -21 -21 -21
-10 -10 -11 -11 -11 -11 -11 -11 -11 -12 -14 -14 -14 -15 -15 -15 -15 -16 -16 -16 -16 -17 -17 -17 -17 -18 -18 -18 -18 -19 -19 -19 -19 -19 -20 -20 -20 -20 -21 -21 -21 -21 -21 -21